Location: Fort Worth, Tx
(32.7431°N, 97.3695°W)
Time: 17:00:01
(UTC-04:00)

A-11 Canister half - Pass Details

Date: 27 February 2024
Orbit: 1525 x 1683 km, 47.3° (Epoch: 21 April)

Event Time Altitude Azimuth Distance (km) Brightness Sun altitude
Exits shadow 05:24:11 43° 187° (S) 2,055 9.4 -33.4°
Drops below altitude 10° 05:30:47 10° 154° (SSE) 3,743 11.2 -32.1°
Sets 05:33:59 0° 149° (SSE) 4,745 11.8 -31.4°
